CW8192 Weather Reports


Display with metric or nautical units.
time (UTC)temp
F
wind
direction
speed
MPH
gust
MPH
rain 1hr
in
rain 24hr
in
rain mn
in
humidity
%
barometer
mb
20260902004704 67 282 0.0 0.0 0.00 1.25 1.25 98 1016.4
20260902003704 67 277 0.0 0.0 0.01 1.25 1.25 97 1016.2
20260902003204 67 277 0.0 1.0 0.01 1.25 1.25 97 1016.2
20260902002204 67 260 0.0 1.0 0.01 1.25 1.25 97 1016.1
20260902001704 68 259 0.0 1.0 0.01 1.25 1.25 97 1016.0
20260902000704 68 199 1.0 3.0 0.01 1.25 1.25 97 1015.8
20260902000204 68 219 0.0 0.0 0.01 1.25 1.25 97 1015.9
20260901235704 68 238 0.0 0.0 0.01 1.25 1.25 97 1016.1
20260901235204 68 238 0.0 0.0 0.01 1.25 1.25 97 1015.8
20260901234704 68 238 0.0 0.0 0.01 1.25 1.25 97 1015.8
20260901234204 68 238 0.0 0.0 0.00 1.24 1.24 97 1015.8
20260901233204 68 238 0.0 0.0 0.00 1.24 1.24 97 1015.8
20260901232703 68 238 0.0 0.0 0.00 1.24 1.24 97 1015.7
20260901231704 69 238 0.0 0.0 0.00 1.24 1.24 97 1015.8
20260901231204 69 237 0.0 0.0 0.00 1.24 1.24 97 1015.8
20260901230203 69 173 0.0 0.0 0.00 1.24 1.24 96 1015.7
20260901225704 69 173 0.0 0.0 0.00 1.24 1.24 96 1015.6
20260901225204 69 173 0.0 0.0 0.00 1.24 1.24 96 1015.4
20260901224204 69 173 0.0 0.0 0.00 1.24 1.24 96 1015.6
20260901223205 69 134 0.0 0.0 0.00 1.24 1.24 96 1015.6
20260901222703 69 98 0.0 0.0 0.00 1.24 1.24 96 1015.7
20260901222203 69 86 0.0 0.0 0.00 1.24 1.24 96 1015.9
20260901221705 69 86 0.0 0.0 0.00 1.24 1.24 95 1015.9
20260901220705 69 86 0.0 0.0 0.00 1.24 1.24 95 1015.7
20260901220205 70 86 0.0 0.0 0.00 1.24 1.24 94 1015.7
20260901215705 70 114 0.0 0.0 0.00 1.24 1.24 94 1015.6
20260901215205 70 123 0.0 0.0 0.00 1.24 1.24 93 1015.5
20260901213705 70 294 0.0 0.0 0.00 1.24 1.24 94 1015.3
20260901213205 71 294 0.0 0.0 0.00 1.24 1.24 95 1015.3
20260901212705 71 294 0.0 0.0 0.00 1.24 1.24 95 1015.3
20260901211705 71 294 0.0 0.0 0.00 1.24 1.24 96 1015.2
20260901211205 71 294 0.0 0.0 0.00 1.24 1.24 95 1015.2
20260901210705 71 294 0.0 0.0 0.00 1.24 1.24 95 1015.2
20260901210205 71 294 0.0 0.0 0.00 1.24 1.24 95 1015.2
20260901205705 71 291 0.0 1.0 0.00 1.24 1.24 95 1015.3
20260901205205 71 282 0.0 1.0 0.00 1.24 1.24 94 1015.0
20260901204705 71 282 0.0 1.0 0.00 1.24 1.24 94 1015.1
20260901204205 72 282 1.0 3.0 0.00 1.24 1.24 94 1015.1
20260901203204 72 286 2.0 3.0 0.00 1.24 1.24 94 1015.1
20260901202705 72 284 1.0 3.0 0.00 1.24 1.24 94 1015.1
20260901201705 72 293 1.0 2.0 0.00 1.24 1.24 94 1015.0
20260901201205 72 300 1.0 2.0 0.00 1.24 1.24 93 1015.0
20260901200706 72 300 0.0 0.0 0.00 1.24 1.24 93 1014.9
20260901200206 72 300 0.0 0.0 0.00 1.24 1.24 93 1014.9
20260901195205 72 315 0.0 0.0 0.00 1.24 1.24 93 1014.9
20260901194705 72 314 0.0 0.0 0.00 1.24 1.24 94 1015.0
20260901193205 71 309 0.0 0.0 0.00 1.24 1.24 94 1014.9
20260901192705 72 309 0.0 0.0 0.00 1.24 1.24 95 1014.9
20260901191705 72 309 0.0 0.0 0.00 1.24 1.24 94 1014.8
20260901191204 72 292 0.0 0.0 0.00 1.24 1.24 93 1014.7
20260901190205 72 9 0.0 0.0 0.00 1.24 1.24 94 1014.7
20260901185705 71 131 0.0 0.0 0.00 1.24 1.24 95 1014.7
20260901185205 71 273 0.0 0.0 0.00 1.24 1.24 95 1014.7
20260901184705 71 284 0.0 0.0 0.00 1.24 1.24 94 1014.8
20260901184205 71 299 0.0 0.0 0.00 1.24 1.24 95 1014.7
20260901183705 71 291 0.0 0.0 0.00 1.24 1.24 95 1014.8
20260901182705 71 219 0.0 0.0 0.00 1.24 1.24 96 1014.7
20260901182205 71 219 0.0 0.0 0.00 1.24 1.24 95 1014.8
20260901181705 71 219 0.0 0.0 0.00 1.24 1.24 94 1014.8
20260901181205 71 140 0.0 0.0 0.00 1.24 1.24 94 1014.8
20260901180706 71 272 0.0 0.0 0.00 1.24 1.24 95 1014.9
20260901180205 71 275 0.0 0.0 0.00 1.24 1.24 95 1014.7
20260901175705 71 40 0.0 0.0 0.00 1.24 1.24 94 1014.7
20260901175205 71 77 0.0 0.0 0.00 1.24 1.24 95 1014.7
20260901174205 72 93 0.0 1.0 0.00 1.24 1.24 95 1014.7
20260901173705 72 30 1.0 3.0 0.00 1.24 1.24 96 1014.6
20260901173205 71 34 0.0 0.0 0.00 1.24 1.24 97 1014.6
20260901172705 71 287 0.0 0.0 0.00 1.24 1.24 96 1014.6
20260901171205 71 286 0.0 0.0 0.00 1.24 1.24 94 1014.6
20260901170706 71 294 0.0 0.0 0.00 1.24 1.24 94 1014.6
20260901170204 71 240 0.0 0.0 0.00 1.24 1.24 93 1014.5
20260901165704 72 171 0.0 0.0 0.00 1.24 1.24 93 1014.6
20260901165205 72 118 0.0 0.0 0.00 1.24 1.24 93 1014.6
20260901164706 72 48 0.0 0.0 0.00 1.24 1.24 93 1014.6
20260901163705 72 254 0.0 0.0 0.00 1.24 1.24 93 1014.6
20260901163205 72 234 0.0 3.0 0.00 1.24 1.24 93 1014.7
20260901162704 72 137 0.0 1.0 0.00 1.24 1.24 94 1014.8
20260901162205 71 110 0.0 2.0 0.01 1.24 1.24 94 1014.8
20260901161706 71 327 0.0 0.0 0.02 1.24 1.24 94 1014.7
20260901161205 71 327 0.0 0.0 0.10 1.24 1.24 96 1014.8
20260901160704 70 327 0.0 0.0 0.12 1.24 1.24 95 1014.8
20260901160206 70 327 0.0 0.0 0.12 1.24 1.24 93 1014.7
20260901154705 69 219 0.0 1.0 0.13 1.24 1.24 98 1014.5
20260901154205 68 228 0.0 2.0 0.13 1.24 1.24 97 1014.4
20260901153705 68 221 1.0 2.0 0.13 1.24 1.24 97 1014.5
20260901153205 68 221 1.0 3.0 0.13 1.24 1.24 98 1014.2
20260901152205 68 130 2.0 3.0 0.12 1.23 1.23 98 1014.1
20260901151704 68 101 2.0 8.0 0.11 1.22 1.22 98 1014.3
20260901151205 68 193 2.0 3.0 0.03 1.14 1.14 97 1014.9
20260901150706 68 309 1.0 3.0 0.01 1.12 1.12 97 1015.3
20260901150205 68 237 0.0 0.0 0.01 1.12 1.12 97 1014.9
20260901145705 68 237 0.0 0.0 0.01 1.12 1.12 97 1014.8
20260901145205 69 229 0.0 0.0 0.00 1.11 1.11 96 1014.9
20260901144705 69 178 1.0 2.0 0.00 1.11 1.11 97 1014.6
20260901144204 69 161 2.0 3.0 0.00 1.11 1.11 98 1014.5
20260901143705 68 151 0.0 0.0 0.01 1.11 1.11 98 1014.6
20260901143205 68 120 0.0 0.0 0.01 1.11 1.11 97 1014.7
20260901142705 68 130 0.0 0.0 0.01 1.11 1.11 97 1014.8
20260901142205 68 202 0.0 1.0 0.01 1.11 1.11 98 1014.8
20260901141705 68 118 0.0 0.0 0.01 1.11 1.11 98 1014.8
20260901141205 68 151 0.0 0.0 0.01 1.11 1.11 97 1014.9
20260901140705 68 121 0.0 0.0 0.02 1.11 1.11 97 1014.9
20260901140204 68 121 0.0 0.0 0.02 1.11 1.11 97 1014.9
20260901135705 68 121 0.0 0.0 0.02 1.11 1.11 98 1015.0
20260901135205 67 119 0.0 0.0 0.02 1.11 1.11 97 1015.0
20260901134205 67 141 0.0 1.0 0.02 1.11 1.11 98 1015.0
20260901133705 67 129 1.0 3.0 0.01 1.10 1.10 98 1015.1
20260901133204 67 113 0.0 0.0 0.01 1.10 1.10 98 1015.0
20260901132705 67 108 0.0 0.0 0.01 1.10 1.10 98 1015.0
20260901132205 67 86 0.0 1.0 0.01 1.10 1.10 98 1015.1
20260901131705 67 105 0.0 0.0 0.01 1.10 1.10 98 1015.3
20260901131204 67 108 0.0 0.0 0.01 1.10 1.10 98 1015.3
20260901130705 67 294 0.0 0.0 0.00 1.09 1.09 98 1015.4
20260901130205 67 294 0.0 0.0 0.00 1.09 1.09 98 1015.3
20260901125706 67 294 0.0 0.0 0.00 1.09 1.09 98 1015.6
20260901125205 67 294 0.0 0.0 0.00 1.09 1.09 98 1015.6
20260901124705 67 294 0.0 0.0 0.01 1.09 1.09 97 1015.5
20260901124204 67 229 0.0 0.0 0.01 1.09 1.09 97 1015.5
20260901123705 67 194 0.0 0.0 0.03 1.09 1.09 97 1015.5
20260901123205 67 110 0.0 2.0 0.09 1.09 1.09 98 1015.3
20260901122206 67 119 1.0 2.0 0.16 1.09 1.09 98 1015.3
20260901121704 67 214 1.0 2.0 0.16 1.09 1.09 98 1015.3
20260901121204 67 185 0.0 3.0 0.17 1.09 1.09 98 1015.3
20260901115705 66 144 0.0 0.0 0.23 1.09 1.09 98 1015.2
20260901115204 66 116 0.0 0.0 0.25 1.09 1.09 98 1015.3
20260901114705 66 83 0.0 0.0 0.26 1.08 1.08 98 1015.3
20260901114204 66 96 1.0 3.0 0.34 1.08 1.08 98 1015.4
20260901113705 66 114 0.0 1.0 0.53 1.06 1.06 98 1015.6
20260901112704 66 45 0.0 0.0 0.55 0.94 0.94 98 1015.7
20260901112205 66 79 0.0 0.0 0.55 0.93 0.93 98 1015.4
20260901111204 66 122 1.0 3.0 0.56 0.92 0.92 98 1015.1
20260901110704 66 88 0.0 3.0 0.57 0.90 0.90 98 1015.3
20260901110204 66 112 1.0 3.0 0.63 0.88 0.88 98 1015.4
20260901105704 66 77 1.0 3.0 0.65 0.86 0.86 98 1015.4
20260901105205 66 118 0.0 0.0 0.66 0.84 0.84 98 1015.5
20260901104705 66 70 1.0 3.0 0.68 0.82 0.82 98 1015.5
20260901104204 66 86 2.0 5.0 0.64 0.74 0.74 98 1015.4
20260901103704 66 326 2.0 3.0 0.46 0.53 0.53 97 1015.9
20260901103204 66 323 2.0 3.0 0.35 0.39 0.39 97 1015.8
20260901102704 66 350 1.0 6.0 0.37 0.39 0.39 97 1014.4
20260901102205 66 147 4.0 8.0 0.36 0.38 0.38 97 1013.9
20260901101705 66 157 2.0 5.0 0.37 0.38 0.38 97 1014.1
20260901101205 66 150 3.0 5.0 0.36 0.36 0.36 97 1014.3
20260901100704 66 104 1.0 2.0 0.33 0.33 0.33 97 1014.6
20260901100205 66 96 0.0 1.0 0.25 0.25 0.25 97 1014.8
20260901095705 67 110 1.0 3.0 0.21 0.21 0.21 97 1014.7
20260901095205 67 99 1.0 2.0 0.18 0.18 0.18 96 1014.7
20260901094204 67 110 0.0 2.0 0.10 0.10 0.10 96 1014.9
20260901093704 67 150 1.0 3.0 0.07 0.07 0.07 96 1014.8
20260901093204 67 125 1.0 3.0 0.04 0.04 0.04 96 1014.9
20260901092704 67 135 1.0 1.0 0.02 0.02 0.02 96 1015.0
20260901091705 67 144 1.0 3.0 0.01 0.01 0.01 95 1015.0
20260901091204 67 129 2.0 3.0 0.00 0.00 0.00 95 1014.9
20260901090704 67 139 2.0 5.0 0.00 0.00 0.00 95 1015.0
20260901090204 67 121 1.0 3.0 0.00 0.00 0.00 95 1015.1
20260901085205 67 158 2.0 7.0 0.00 0.00 0.00 94 1015.0
20260901084704 67 143 2.0 5.0 0.00 0.00 0.00 94 1015.1
20260901084204 67 169 2.0 3.0 0.00 0.00 0.00 94 1015.1
20260901083204 67 118 1.0 2.0 0.00 0.00 0.00 94 1015.3
20260901082705 67 123 0.0 3.0 0.00 0.00 0.00 93 1015.3
20260901082204 67 131 2.0 3.0 0.00 0.00 0.00 93 1015.4
20260901081704 68 77 1.0 2.0 0.00 0.00 0.00 93 1015.3
20260901081204 68 147 2.0 3.0 0.00 0.00 0.00 93 1015.4
20260901080705 68 170 0.0 3.0 0.00 0.00 0.00 93 1015.5
20260901080204 68 167 0.0 3.0 0.00 0.00 0.00 93 1015.6
20260901075704 67 199 0.0 3.0 0.00 0.00 0.00 93 1015.6
20260901075205 67 194 0.0 0.0 0.00 0.00 0.00 93 1015.5
20260901074705 67 194 0.0 0.0 0.00 0.00 0.00 93 1015.6
20260901074205 67 195 0.0 0.0 0.00 0.00 0.00 93 1015.6
20260901073704 67 154 0.0 0.0 0.00 0.00 0.00 93 1015.5
20260901073204 67 199 0.0 0.0 0.00 0.00 0.00 93 1015.6
20260901072705 67 201 0.0 0.0 0.00 0.00 0.00 93 1015.7
20260901071704 67 114 0.0 0.0 0.00 0.00 0.00 93 1015.8
20260901071204 67 123 0.0 0.0 0.00 0.00 0.00 93 1015.7
20260901070204 67 165 0.0 0.0 0.00 0.00 0.00 94 1015.6
20260901065205 67 175 0.0 0.0 0.00 0.00 0.00 94 1015.6
20260901064704 67 160 0.0 0.0 0.00 0.00 0.00 95 1015.6
20260901064205 67 135 0.0 0.0 0.00 0.00 0.00 95 1015.6
20260901063704 67 112 0.0 0.0 0.00 0.00 0.00 94 1015.6
20260901063205 67 122 0.0 0.0 0.00 0.00 0.00 95 1015.8
20260901062704 67 130 0.0 0.0 0.00 0.00 0.00 94 1016.0
20260901062204 67 106 0.0 0.0 0.00 0.00 0.00 94 1016.3
20260901060704 67 187 0.0 0.0 0.00 0.00 0.00 94 1016.6
20260901055204 67 130 0.0 0.0 0.00 0.00 0.00 94 1016.6
20260901054704 66 132 0.0 0.0 0.00 0.00 0.00 94 1016.7
20260901054204 66 150 0.0 0.0 0.00 0.00 0.00 94 1016.7
20260901053704 66 122 0.0 0.0 0.00 0.00 0.00 94 1016.8
20260901053205 66 122 0.0 0.0 0.00 0.00 0.00 94 1017.1
20260901052704 67 122 0.0 0.0 0.00 0.00 0.00 94 1017.0
20260901052205 67 122 0.0 0.0 0.00 0.00 0.00 94 1016.9
20260901051704 67 124 0.0 0.0 0.00 0.00 0.00 94 1016.8
20260901051205 66 97 0.0 0.0 0.00 0.00 0.00 94 1016.8
20260901045204 66 119 0.0 0.0 0.00 0.00 0.00 94 1017.0
20260901044704 66 115 0.0 0.0 0.00 0.00 0.00 94 1017.0
20260901044204 66 161 0.0 0.0 0.00 0.00 0.00 94 1017.1
20260901043704 66 147 0.0 0.0 0.00 0.00 0.00 94 1017.2
20260901043204 66 197 0.0 0.0 0.00 0.00 0.00 94 1017.1
20260901042704 66 198 0.0 0.0 0.00 0.00 0.00 93 1017.2
20260901042204 66 200 0.0 0.0 0.00 0.00 0.00 93 1017.1
20260901041704 66 200 0.0 0.0 0.00 0.00 0.00 93 1017.1
20260901041204 67 200 0.0 0.0 0.00 0.00 0.00 92 1017.0
20260901040704 67 182 0.0 0.0 0.00 0.00 0.00 92 1016.9
20260901040204 67 117 1.0 3.0 0.00 0.00 0.00 92 1016.9
20260901035704 67 139 1.0 2.0 0.00 0.00 0.00 92 1016.8
20260901035205 67 164 1.0 3.0 0.00 0.00 0.00 92 1016.7
20260901034704 67 187 1.0 3.0 0.00 0.00 0.00 93 1016.8
20260901034204 66 177 0.0 0.0 0.00 0.00 0.00 92 1016.9
20260901033704 66 197 0.0 0.0 0.00 0.00 0.00 92 1016.9
20260901033204 66 200 0.0 0.0 0.00 0.00 0.00 93 1016.9
20260901032704 66 160 0.0 0.0 0.00 0.00 0.00 92 1016.8
20260901032204 66 183 0.0 0.0 0.00 0.00 0.00 92 1016.8
20260901030205 67 161 0.0 0.0 0.00 0.00 0.00 92 1017.1
20260901025704 67 181 0.0 0.0 0.00 0.00 0.00 91 1017.2
20260901025204 67 186 0.0 0.0 0.00 0.00 0.00 90 1017.2
20260901024705 67 192 0.0 0.0 0.00 0.00 0.00 91 1017.3
20260901024204 68 195 0.0 0.0 0.00 0.00 0.00 90 1017.3
20260901023704 68 180 0.0 0.0 0.00 0.00 0.00 90 1017.4
20260901023204 68 189 0.0 0.0 0.00 0.00 0.00 90 1017.3
20260901021704 67 217 0.0 0.0 0.00 0.00 0.00 92 1017.3
20260901015704 67 175 0.0 0.0 0.00 0.00 0.00 92 1017.5
20260901014704 67 175 0.0 0.0 0.00 0.00 0.00 91 1017.4
20260901014204 67 175 0.0 0.0 0.00 0.00 0.00 91 1017.3
20260901012704 67 218 0.0 0.0 0.00 0.00 0.00 91 1017.3
20260901012204 67 242 0.0 0.0 0.00 0.00 0.00 92 1017.3
20260901011704 67 242 0.0 0.0 0.00 0.00 0.00 90 1017.4
20260901011204 67 242 0.0 0.0 0.00 0.00 0.00 90 1017.2
20260901010704 67 242 0.0 0.0 0.00 0.00 0.00 90 1017.4
20260901010204 68 242 0.0 0.0 0.00 0.00 0.00 90 1017.4
20260901005704 68 242 0.0 0.0 0.00 0.00 0.00 89 1017.3